Time,TemperatureF,DewpointF,PressureIn,WindDirection,WindDirectionDegrees,WindSpeedMPH,WindSpeedGustMPH,Humidity,HourlyPrecipIn,Conditions,Clouds,dailyrainin,SoftwareType,DateUTC
2016-02-09 00:13:00,24.2,20.0,29.75,SSW,195,1.0,13.0,85,0.00,,,0.16,weatherlink.com 1.10,2016-02-09 05:13:00,
2016-02-09 00:58:00,23.6,20.0,29.75,SW,227,2.0,11.0,87,0.00,,,0.00,weatherlink.com 1.10,2016-02-09 05:58:00,
2016-02-09 01:13:00,23.4,20.0,29.74,WSW,241,7.0,14.0,87,0.00,,,0.00,weatherlink.com 1.10,2016-02-09 06:13:00,
2016-02-09 01:28:00,23.1,19.0,29.75,South,189,11.0,14.0,84,0.00,,,0.00,weatherlink.com 1.10,2016-02-09 06:28:00,
2016-02-09 01:43:00,23.0,18.0,29.75,SSW,200,4.0,12.0,82,0.00,,,0.00,weatherlink.com 1.10,2016-02-09 06:43:00,
2016-02-09 01:58:00,23.0,18.0,29.75,SSW,205,2.0,10.0,82,0.00,,,0.00,weatherlink.com 1.10,2016-02-09 06:58:00,
2016-02-09 02:13:00,22.7,18.0,29.75,SSW,199,4.0,10.0,82,0.00,,,0.00,weatherlink.com 1.10,2016-02-09 07:13:00,
2016-02-09 02:28:00,22.7,18.0,29.74,SSW,210,3.0,9.0,82,0.00,,,0.00,weatherlink.com 1.10,2016-02-09 07:28:00,
2016-02-09 02:43:00,22.6,18.0,29.74,SSW,202,3.0,11.0,82,0.00,,,0.00,weatherlink.com 1.10,2016-02-09 07:43:00,
2016-02-09 02:58:00,22.4,17.0,29.74,SSW,211,4.0,9.0,81,0.00,,,0.00,weatherlink.com 1.10,2016-02-09 07:58:00,
2016-02-09 03:28:00,22.1,17.0,29.74,SSW,200,7.0,9.0,82,0.00,,,0.00,weatherlink.com 1.10,2016-02-09 08:28:00,
2016-02-09 03:43:00,21.8,17.0,29.74,SSW,211,3.0,9.0,82,0.00,,,0.00,weatherlink.com 1.10,2016-02-09 08:43:00,
2016-02-09 03:58:00,21.7,17.0,29.73,SSW,193,1.0,7.0,82,0.00,,,0.00,weatherlink.com 1.10,2016-02-09 08:58:00,
2016-02-09 04:13:00,21.8,17.0,29.73,SW,225,2.0,8.0,83,0.00,,,0.00,weatherlink.com 1.10,2016-02-09 09:13:00,
2016-02-09 04:28:00,21.9,18.0,29.73,South,188,4.0,6.0,83,0.00,,,0.00,weatherlink.com 1.10,2016-02-09 09:28:00,
2016-02-09 04:43:00,22.0,18.0,29.74,SSW,207,4.0,9.0,83,0.00,,,0.00,weatherlink.com 1.10,2016-02-09 09:43:00,
2016-02-09 04:58:00,22.0,18.0,29.74,SSW,206,4.0,10.0,83,0.00,,,0.00,weatherlink.com 1.10,2016-02-09 09:58:00,
2016-02-09 05:13:00,22.0,18.0,29.74,SSW,194,3.0,7.0,83,0.00,,,0.00,weatherlink.com 1.10,2016-02-09 10:13:00,
2016-02-09 05:28:00,22.1,18.0,29.75,SSE,168,6.0,10.0,84,0.00,,,0.00,weatherlink.com 1.10,2016-02-09 10:28:00,
2016-02-09 05:43:00,21.8,18.0,29.75,South,187,3.0,10.0,86,0.00,,,0.00,weatherlink.com 1.10,2016-02-09 10:43:00,
2016-02-09 05:59:00,21.6,18.0,29.75,SSW,211,1.0,8.0,86,0.00,,,0.00,weatherlink.com 1.10,2016-02-09 10:59:00,
2016-02-09 06:14:00,21.5,18.0,29.76,South,185,3.0,7.0,86,0.00,,,0.00,weatherlink.com 1.10,2016-02-09 11:14:00,
2016-02-09 06:29:00,21.4,18.0,29.76,South,184,4.0,11.0,87,0.00,,,0.00,weatherlink.com 1.10,2016-02-09 11:29:00,
2016-02-09 06:44:00,21.5,18.0,29.76,SSW,207,1.0,8.0,87,0.00,,,0.00,weatherlink.com 1.10,2016-02-09 11:44:00,
2016-02-09 06:59:00,21.5,18.0,29.77,South,184,4.0,7.0,87,0.00,,,0.00,weatherlink.com 1.10,2016-02-09 11:59:00,
2016-02-09 07:14:00,21.6,18.0,29.77,SSW,205,3.0,7.0,87,0.00,,,0.00,weatherlink.com 1.10,2016-02-09 12:14:00,
2016-02-09 07:29:00,21.6,18.0,29.77,South,169,5.0,9.0,86,0.00,,,0.00,weatherlink.com 1.10,2016-02-09 12:29:00,
2016-02-09 07:44:00,21.6,18.0,29.78,South,181,2.0,8.0,85,0.00,,,0.00,weatherlink.com 1.10,2016-02-09 12:44:00,
2016-02-09 07:59:00,21.5,18.0,29.78,SSW,204,5.0,11.0,85,0.00,,,0.00,weatherlink.com 1.10,2016-02-09 12:59:00,
2016-02-09 08:14:00,21.5,17.0,29.78,SSW,202,6.0,8.0,84,0.00,,,0.00,weatherlink.com 1.10,2016-02-09 13:14:00,
2016-02-09 08:29:00,21.6,18.0,29.79,South,184,4.0,8.0,84,0.00,,,0.00,weatherlink.com 1.10,2016-02-09 13:29:00,
2016-02-09 08:44:00,21.6,18.0,29.79,South,177,3.0,12.0,84,0.00,,,0.00,weatherlink.com 1.10,2016-02-09 13:44:00,
2016-02-09 08:59:00,21.8,18.0,29.79,SSW,198,4.0,11.0,84,0.00,,,0.00,weatherlink.com 1.10,2016-02-09 13:59:00,
2016-02-09 09:14:00,22.0,18.0,29.79,SSW,202,6.0,10.0,83,0.00,,,0.00,weatherlink.com 1.10,2016-02-09 14:14:00,
2016-02-09 09:29:00,22.3,18.0,29.79,SSW,204,6.0,13.0,83,0.00,,,0.00,weatherlink.com 1.10,2016-02-09 14:29:00,
2016-02-09 09:44:00,22.6,18.0,29.80,SSW,193,4.0,13.0,82,0.00,,,0.00,weatherlink.com 1.10,2016-02-09 14:44:00,
2016-02-09 09:59:00,22.9,18.0,29.80,SSW,206,2.0,9.0,82,0.00,,,0.00,weatherlink.com 1.10,2016-02-09 14:59:00,
2016-02-09 10:14:00,23.0,18.0,29.80,SW,219,6.0,13.0,81,0.00,,,0.00,weatherlink.com 1.10,2016-02-09 15:14:00,
2016-02-09 10:29:00,23.0,18.0,29.80,SSW,195,1.0,12.0,80,0.00,,,0.00,weatherlink.com 1.10,2016-02-09 15:29:00,
2016-02-09 10:44:00,23.4,18.0,29.80,SW,218,6.0,13.0,79,0.00,,,0.00,weatherlink.com 1.10,2016-02-09 15:44:00,
2016-02-09 10:59:00,23.9,18.0,29.80,SSW,207,7.0,12.0,79,0.00,,,0.00,weatherlink.com 1.10,2016-02-09 15:59:00,
2016-02-09 11:14:00,23.9,18.0,29.80,South,179,3.0,10.0,79,0.00,,,0.00,weatherlink.com 1.10,2016-02-09 16:14:00,
2016-02-09 11:29:00,24.0,19.0,29.80,SSW,207,7.0,10.0,80,0.00,,,0.00,weatherlink.com 1.10,2016-02-09 16:29:00,
2016-02-09 11:59:00,24.2,19.0,29.80,SW,218,9.0,12.0,80,0.00,,,0.00,weatherlink.com 1.10,2016-02-09 16:59:00,
2016-02-09 12:14:00,24.4,19.0,29.80,SSW,212,4.0,10.0,79,0.00,,,0.00,weatherlink.com 1.10,2016-02-09 17:14:00,
2016-02-09 12:29:00,24.4,18.0,29.80,South,179,7.0,11.0,78,0.00,,,0.00,weatherlink.com 1.10,2016-02-09 17:29:00,
2016-02-09 12:44:00,24.7,19.0,29.80,WSW,255,7.0,15.0,78,0.00,,,0.00,weatherlink.com 1.10,2016-02-09 17:44:00,
2016-02-09 12:59:00,24.8,19.0,29.80,SSW,205,7.0,10.0,78,0.00,,,0.00,weatherlink.com 1.10,2016-02-09 17:59:00,